Location: Baia Mare
(47.6567°N, 23.5850°E)
Time: 03:15:12
(UTC+02:00)

ISS - Pass Details

Date: 02 February 2018
Orbit: 403 x 407 km, 51.6° (Epoch: 22 February)

Event Time Altitude Azimuth Distance (km) Brightness Sun altitude
Rises 20:12:00 0° 288° (WNW) 2,321 1.2 -27.8°
Reaches altitude 10° 20:14:08 10° 295° (WNW) 1,461 -0.2 -28.1°
Enters shadow 20:14:57 16° 301° (WNW) 1,150 -0.9 -28.2°
